Date_Time,Julian_Date,Latitude,Longitude,Instrument_Depth,U,V,Speed,Direction
(yyyy-mm-dd hh:mn:ss UTC),(JD),(+ deg. North),(+ deg. East),(m),(cm/s),(cm/s),(cm/s),(deg True)
1982-10-16 18:00:00 UTC,2445259.250000,29.6650,-93.4789,0086,0.35,9.99,10.0000,2.0000
1982-10-16 18:30:00 UTC,2445259.270833,29.6650,-93.4789,0086,0.58,10.98,11.0000,3.0000
1982-10-16 19:00:00 UTC,2445259.291667,29.6650,-93.4789,0086,-0.94,8.95,9.0000,354.0000
1982-10-16 19:30:00 UTC,2445259.312500,29.6650,-93.4789,0086,-2.15,5.60,6.0000,339.0000
1982-10-16 20:00:00 UTC,2445259.333333,29.6650,-93.4789,0086,-2.62,3.02,4.0000,319.0000
1982-10-16 20:30:00 UTC,2445259.354167,29.6650,-93.4789,0086,-2.91,0.73,3.0000,284.0000
1982-10-16 21:00:00 UTC,2445259.375000,29.6650,-93.4789,0086,-2.91,-0.73,3.0000,256.0000
1982-10-16 21:30:00 UTC,2445259.395833,29.6650,-93.4789,0086,-2.46,-1.72,3.0000,235.0000
1982-10-16 22:00:00 UTC,2445259.416667,29.6650,-93.4789,0086,-2.24,-3.32,4.0000,214.0000
1982-10-16 22:30:00 UTC,2445259.437500,29.6650,-93.4789,0086,-2.72,-4.19,5.0000,213.0000
1982-10-16 23:00:00 UTC,2445259.458333,29.6650,-93.4789,0086,-2.52,-3.11,4.0000,219.0000
1982-10-16 23:30:00 UTC,2445259.479167,29.6650,-93.4789,0086,-3.11,-2.52,4.0000,231.0000
1982-10-17 00:00:00 UTC,2445259.500000,29.6650,-93.4789,0086,-3.56,-1.82,4.0000,243.0000
1982-10-17 00:30:00 UTC,2445259.520833,29.6650,-93.4789,0086,-3.68,-1.56,4.0000,247.0000
1982-10-17 01:00:00 UTC,2445259.541667,29.6650,-93.4789,0086,-2.82,-1.03,3.0000,250.0000
1982-10-17 01:30:00 UTC,2445259.562500,29.6650,-93.4789,0086,-1.81,-0.85,2.0000,245.0000
1982-10-17 02:00:00 UTC,2445259.583333,29.6650,-93.4789,0086,-1.96,-0.42,2.0000,258.0000
1982-10-17 02:30:00 UTC,2445259.604167,29.6650,-93.4789,0086,-2.90,0.78,3.0000,285.0000
1982-10-17 03:00:00 UTC,2445259.625000,29.6650,-93.4789,0086,-3.63,1.69,4.0000,295.0000
1982-10-17 03:30:00 UTC,2445259.645833,29.6650,-93.4789,0086,-4.46,2.27,5.0000,297.0000
1982-10-17 04:00:00 UTC,2445259.666667,29.6650,-93.4789,0086,-5.52,2.34,6.0000,293.0000
1982-10-17 04:30:00 UTC,2445259.687500,29.6650,-93.4789,0086,-5.64,2.05,6.0000,290.0000
1982-10-17 05:00:00 UTC,2445259.708333,29.6650,-93.4789,0086,-5.60,2.15,6.0000,291.0000
1982-10-17 05:30:00 UTC,2445259.729167,29.6650,-93.4789,0086,-3.83,1.17,4.0000,287.0000
1982-10-17 06:00:00 UTC,2445259.750000,29.6650,-93.4789,0086,-3.99,0.28,4.0000,274.0000
1982-10-17 06:30:00 UTC,2445259.770833,29.6650,-93.4789,0086,-4.97,-0.52,5.0000,264.0000
1982-10-17 07:00:00 UTC,2445259.791667,29.6650,-93.4789,0086,-6.93,-0.97,7.0000,262.0000
1982-10-17 07:30:00 UTC,2445259.812500,29.6650,-93.4789,0086,-7.94,-0.97,8.0000,263.0000
1982-10-17 08:00:00 UTC,2445259.833333,29.6650,-93.4789,0086,-7.83,-1.66,8.0000,258.0000
1982-10-17 08:30:00 UTC,2445259.854167,29.6650,-93.4789,0086,-6.00,-3.61,7.0000,239.0000
1982-10-17 09:00:00 UTC,2445259.875000,29.6650,-93.4789,0086,-5.44,-4.41,7.0000,231.0000
1982-10-17 09:30:00 UTC,2445259.895833,29.6650,-93.4789,0086,-5.04,-4.86,7.0000,226.0000
1982-10-17 10:00:00 UTC,2445259.916667,29.6650,-93.4789,0086,-2.91,-5.25,6.0000,209.0000
1982-10-17 10:30:00 UTC,2445259.937500,29.6650,-93.4789,0086,-1.35,-5.85,6.0000,193.0000
1982-10-17 11:00:00 UTC,2445259.958333,29.6650,-93.4789,0086,-1.55,-5.80,6.0000,195.0000
1982-10-17 11:30:00 UTC,2445259.979167,29.6650,-93.4789,0086,-3.18,-5.09,6.0000,212.0000
1982-10-17 12:00:00 UTC,2445260.000000,29.6650,-93.4789,0086,-5.52,-4.31,7.0000,232.0000
1982-10-17 12:30:00 UTC,2445260.020833,29.6650,-93.4789,0086,-7.52,-2.74,8.0000,250.0000
1982-10-17 13:00:00 UTC,2445260.041667,29.6650,-93.4789,0086,-8.77,-2.02,9.0000,257.0000
1982-10-17 13:30:00 UTC,2445260.062500,29.6650,-93.4789,0086,-8.86,-1.56,9.0000,260.0000
1982-10-17 14:00:00 UTC,2445260.083333,29.6650,-93.4789,0086,-7.98,-0.56,8.0000,266.0000
1982-10-17 14:30:00 UTC,2445260.104167,29.6650,-93.4789,0086,-8.00,-0.14,8.0000,269.0000
1982-10-17 15:00:00 UTC,2445260.125000,29.6650,-93.4789,0086,-8.98,-0.63,9.0000,266.0000
1982-10-17 15:30:00 UTC,2445260.145833,29.6650,-93.4789,0086,-8.99,-0.31,9.0000,268.0000
1982-10-17 16:00:00 UTC,2445260.166667,29.6650,-93.4789,0086,-9.99,0.35,10.0000,272.0000
1982-10-17 16:30:00 UTC,2445260.187500,29.6650,-93.4789,0086,-12.00,-0.00,12.0000,270.0000
1982-10-17 17:00:00 UTC,2445260.208333,29.6650,-93.4789,0086,-12.00,-0.21,12.0000,269.0000
1982-10-17 17:30:00 UTC,2445260.229167,29.6650,-93.4789,0086,-10.99,0.38,11.0000,272.0000
1982-10-17 18:00:00 UTC,2445260.250000,29.6650,-93.4789,0086,-9.99,-0.35,10.0000,268.0000
1982-10-17 18:30:00 UTC,2445260.270833,29.6650,-93.4789,0086,-9.88,-1.56,10.0000,261.0000
1982-10-17 19:00:00 UTC,2445260.291667,29.6650,-93.4789,0086,-9.99,-0.52,10.0000,267.0000
1982-10-17 19:30:00 UTC,2445260.312500,29.6650,-93.4789,0086,-11.00,0.19,11.0000,271.0000
1982-10-17 20:00:00 UTC,2445260.333333,29.6650,-93.4789,0086,-11.97,-0.84,12.0000,266.0000
1982-10-17 20:30:00 UTC,2445260.354167,29.6650,-93.4789,0086,-10.96,-0.96,11.0000,265.0000
1982-10-17 21:00:00 UTC,2445260.375000,29.6650,-93.4789,0086,-10.00,-0.17,10.0000,269.0000
1982-10-17 21:30:00 UTC,2445260.395833,29.6650,-93.4789,0086,-7.98,-0.56,8.0000,266.0000
1982-10-17 22:00:00 UTC,2445260.416667,29.6650,-93.4789,0086,-6.82,-1.57,7.0000,257.0000
1982-10-17 22:30:00 UTC,2445260.437500,29.6650,-93.4789,0086,-5.80,-1.55,6.0000,255.0000
1982-10-17 23:00:00 UTC,2445260.458333,29.6650,-93.4789,0086,-5.91,-1.04,6.0000,260.0000
1982-10-17 23:30:00 UTC,2445260.479167,29.6650,-93.4789,0086,-6.97,-0.61,7.0000,265.0000
1982-10-18 00:00:00 UTC,2445260.500000,29.6650,-93.4789,0086,-8.00,-0.14,8.0000,269.0000
1982-10-18 00:30:00 UTC,2445260.520833,29.6650,-93.4789,0086,-8.00,0.28,8.0000,272.0000
1982-10-18 01:00:00 UTC,2445260.541667,29.6650,-93.4789,0086,-7.99,0.42,8.0000,273.0000
1982-10-18 01:30:00 UTC,2445260.562500,29.6650,-93.4789,0086,-6.99,0.37,7.0000,273.0000
1982-10-18 02:00:00 UTC,2445260.583333,29.6650,-93.4789,0086,-7.00,0.24,7.0000,272.0000
1982-10-18 02:30:00 UTC,2445260.604167,29.6650,-93.4789,0086,-7.00,-0.12,7.0000,269.0000
1982-10-18 03:00:00 UTC,2445260.625000,29.6650,-93.4789,0086,-7.00,-0.24,7.0000,268.0000
1982-10-18 03:30:00 UTC,2445260.645833,29.6650,-93.4789,0086,-8.00,0.14,8.0000,271.0000
1982-10-18 04:00:00 UTC,2445260.666667,29.6650,-93.4789,0086,-7.98,0.56,8.0000,274.0000
1982-10-18 04:30:00 UTC,2445260.687500,29.6650,-93.4789,0086,-6.95,0.85,7.0000,277.0000
1982-10-18 05:00:00 UTC,2445260.708333,29.6650,-93.4789,0086,-6.93,0.97,7.0000,278.0000
1982-10-18 05:30:00 UTC,2445260.729167,29.6650,-93.4789,0086,-7.94,0.97,8.0000,277.0000
1982-10-18 06:00:00 UTC,2445260.750000,29.6650,-93.4789,0086,-8.91,1.25,9.0000,278.0000
1982-10-18 06:30:00 UTC,2445260.770833,29.6650,-93.4789,0086,-8.86,1.56,9.0000,280.0000
1982-10-18 07:00:00 UTC,2445260.791667,29.6650,-93.4789,0086,-8.89,1.41,9.0000,279.0000
1982-10-18 07:30:00 UTC,2445260.812500,29.6650,-93.4789,0086,-8.95,0.94,9.0000,276.0000
1982-10-18 08:00:00 UTC,2445260.833333,29.6650,-93.4789,0086,-8.98,0.63,9.0000,274.0000
1982-10-18 08:30:00 UTC,2445260.854167,29.6650,-93.4789,0086,-9.00,-0.00,9.0000,270.0000
1982-10-18 09:00:00 UTC,2445260.875000,29.6650,-93.4789,0086,-8.98,-0.63,9.0000,266.0000
1982-10-18 09:30:00 UTC,2445260.895833,29.6650,-93.4789,0086,-7.90,-1.25,8.0000,261.0000
1982-10-18 10:00:00 UTC,2445260.916667,29.6650,-93.4789,0086,-6.69,-2.05,7.0000,253.0000
1982-10-18 10:30:00 UTC,2445260.937500,29.6650,-93.4789,0086,-6.79,-1.69,7.0000,256.0000
1982-10-18 11:00:00 UTC,2445260.958333,29.6650,-93.4789,0086,-5.99,-0.42,6.0000,266.0000
1982-10-18 11:30:00 UTC,2445260.979167,29.6650,-93.4789,0086,-6.00,-0.10,6.0000,269.0000
1982-10-18 12:00:00 UTC,2445261.000000,29.6650,-93.4789,0086,-5.98,-0.52,6.0000,265.0000
1982-10-18 12:30:00 UTC,2445261.020833,29.6650,-93.4789,0086,-5.99,-0.42,6.0000,266.0000
1982-10-18 13:00:00 UTC,2445261.041667,29.6650,-93.4789,0086,-7.00,0.12,7.0000,271.0000
1982-10-18 13:30:00 UTC,2445261.062500,29.6650,-93.4789,0086,-7.00,-0.00,7.0000,270.0000
1982-10-18 14:00:00 UTC,2445261.083333,29.6650,-93.4789,0086,-6.99,-0.37,7.0000,267.0000
1982-10-18 14:30:00 UTC,2445261.104167,29.6650,-93.4789,0086,-6.99,-0.37,7.0000,267.0000
1982-10-18 15:00:00 UTC,2445261.125000,29.6650,-93.4789,0086,-7.00,-0.12,7.0000,269.0000
1982-10-18 15:30:00 UTC,2445261.145833,29.6650,-93.4789,0086,-6.99,0.37,7.0000,273.0000
1982-10-18 16:00:00 UTC,2445261.166667,29.6650,-93.4789,0086,-7.97,0.70,8.0000,275.0000
1982-10-18 16:30:00 UTC,2445261.187500,29.6650,-93.4789,0086,-9.96,0.87,10.0000,275.0000
1982-10-18 17:00:00 UTC,2445261.208333,29.6650,-93.4789,0086,-10.94,1.15,11.0000,276.0000
1982-10-18 17:30:00 UTC,2445261.229167,29.6650,-93.4789,0086,-10.94,1.15,11.0000,276.0000
1982-10-18 18:00:00 UTC,2445261.250000,29.6650,-93.4789,0086,-9.98,0.70,10.0000,274.0000
1982-10-18 18:30:00 UTC,2445261.270833,29.6650,-93.4789,0086,-10.00,0.17,10.0000,271.0000
1982-10-18 19:00:00 UTC,2445261.291667,29.6650,-93.4789,0086,-10.00,-0.17,10.0000,269.0000
1982-10-18 19:30:00 UTC,2445261.312500,29.6650,-93.4789,0086,-10.00,0.17,10.0000,271.0000
1982-10-18 20:00:00 UTC,2445261.333333,29.6650,-93.4789,0086,-9.99,0.52,10.0000,273.0000
1982-10-18 20:30:00 UTC,2445261.354167,29.6650,-93.4789,0086,-10.00,-0.17,10.0000,269.0000
1982-10-18 21:00:00 UTC,2445261.375000,29.6650,-93.4789,0086,-9.98,-0.70,10.0000,266.0000
1982-10-18 21:30:00 UTC,2445261.395833,29.6650,-93.4789,0086,-9.93,-1.22,10.0000,263.0000
1982-10-18 22:00:00 UTC,2445261.416667,29.6650,-93.4789,0086,-8.83,-1.72,9.0000,259.0000
1982-10-18 22:30:00 UTC,2445261.437500,29.6650,-93.4789,0086,-7.76,-1.94,8.0000,256.0000
1982-10-18 23:00:00 UTC,2445261.458333,29.6650,-93.4789,0086,-6.29,-3.07,7.0000,244.0000
1982-10-18 23:30:00 UTC,2445261.479167,29.6650,-93.4789,0086,-5.44,-4.41,7.0000,231.0000
1982-10-19 00:00:00 UTC,2445261.500000,29.6650,-93.4789,0086,-5.66,-4.11,7.0000,234.0000
1982-10-19 00:30:00 UTC,2445261.520833,29.6650,-93.4789,0086,-5.39,-2.63,6.0000,244.0000
1982-10-19 01:00:00 UTC,2445261.541667,29.6650,-93.4789,0086,-6.73,-1.93,7.0000,254.0000
1982-10-19 01:30:00 UTC,2445261.562500,29.6650,-93.4789,0086,-6.76,-1.81,7.0000,255.0000
1982-10-19 02:00:00 UTC,2445261.583333,29.6650,-93.4789,0086,-6.73,-1.93,7.0000,254.0000
1982-10-19 02:30:00 UTC,2445261.604167,29.6650,-93.4789,0086,-5.87,-1.25,6.0000,258.0000
1982-10-19 03:00:00 UTC,2445261.625000,29.6650,-93.4789,0086,-5.93,-0.94,6.0000,261.0000
1982-10-19 03:30:00 UTC,2445261.645833,29.6650,-93.4789,0086,-5.91,-1.04,6.0000,260.0000
1982-10-19 04:00:00 UTC,2445261.666667,29.6650,-93.4789,0086,-5.97,-0.63,6.0000,264.0000
1982-10-19 04:30:00 UTC,2445261.687500,29.6650,-93.4789,0086,-5.96,-0.73,6.0000,263.0000
1982-10-19 05:00:00 UTC,2445261.708333,29.6650,-93.4789,0086,-4.81,-1.38,5.0000,254.0000
1982-10-19 05:30:00 UTC,2445261.729167,29.6650,-93.4789,0086,-5.74,-1.75,6.0000,253.0000
1982-10-19 06:00:00 UTC,2445261.750000,29.6650,-93.4789,0086,-6.95,-0.85,7.0000,263.0000
1982-10-19 06:30:00 UTC,2445261.770833,29.6650,-93.4789,0086,-8.00,0.14,8.0000,271.0000
1982-10-19 07:00:00 UTC,2445261.791667,29.6650,-93.4789,0086,-8.99,0.31,9.0000,272.0000
1982-10-19 07:30:00 UTC,2445261.812500,29.6650,-93.4789,0086,-8.99,-0.31,9.0000,268.0000
1982-10-19 08:00:00 UTC,2445261.833333,29.6650,-93.4789,0086,-7.97,-0.70,8.0000,265.0000
1982-10-19 08:30:00 UTC,2445261.854167,29.6650,-93.4789,0086,-6.93,-0.97,7.0000,262.0000
1982-10-19 09:00:00 UTC,2445261.875000,29.6650,-93.4789,0086,-6.82,-1.57,7.0000,257.0000
1982-10-19 09:30:00 UTC,2445261.895833,29.6650,-93.4789,0086,-5.64,-2.05,6.0000,250.0000
1982-10-19 10:00:00 UTC,2445261.916667,29.6650,-93.4789,0086,-5.44,-2.54,6.0000,245.0000
1982-10-19 10:30:00 UTC,2445261.937500,29.6650,-93.4789,0086,-5.52,-2.34,6.0000,247.0000
1982-10-19 11:00:00 UTC,2445261.958333,29.6650,-93.4789,0086,-5.74,-1.75,6.0000,253.0000
1982-10-19 11:30:00 UTC,2445261.979167,29.6650,-93.4789,0086,-5.77,-1.65,6.0000,254.0000
1982-10-19 12:00:00 UTC,2445262.000000,29.6650,-93.4789,0086,-4.70,-1.71,5.0000,250.0000
1982-10-19 12:30:00 UTC,2445262.020833,29.6650,-93.4789,0086,-4.57,-2.03,5.0000,246.0000
1982-10-19 13:00:00 UTC,2445262.041667,29.6650,-93.4789,0086,-4.76,-1.55,5.0000,252.0000
1982-10-19 13:30:00 UTC,2445262.062500,29.6650,-93.4789,0086,-5.89,-1.14,6.0000,259.0000
1982-10-19 14:00:00 UTC,2445262.083333,29.6650,-93.4789,0086,-5.93,-0.94,6.0000,261.0000
1982-10-19 14:30:00 UTC,2445262.104167,29.6650,-93.4789,0086,-5.93,-0.94,6.0000,261.0000
1982-10-19 15:00:00 UTC,2445262.125000,29.6650,-93.4789,0086,-5.94,-0.84,6.0000,262.0000
1982-10-19 15:30:00 UTC,2445262.145833,29.6650,-93.4789,0086,-6.96,-0.73,7.0000,264.0000
1982-10-19 16:00:00 UTC,2445262.166667,29.6650,-93.4789,0086,-6.98,-0.49,7.0000,266.0000
1982-10-19 16:30:00 UTC,2445262.187500,29.6650,-93.4789,0086,-7.99,-0.42,8.0000,267.0000
1982-10-19 17:00:00 UTC,2445262.208333,29.6650,-93.4789,0086,-8.00,-0.14,8.0000,269.0000
1982-10-19 17:30:00 UTC,2445262.229167,29.6650,-93.4789,0086,-8.99,0.47,9.0000,273.0000
1982-10-19 18:00:00 UTC,2445262.250000,29.6650,-93.4789,0086,-9.99,0.52,10.0000,273.0000
1982-10-19 18:30:00 UTC,2445262.270833,29.6650,-93.4789,0086,-8.99,0.31,9.0000,272.0000
1982-10-19 19:00:00 UTC,2445262.291667,29.6650,-93.4789,0086,-8.00,0.28,8.0000,272.0000
1982-10-19 19:30:00 UTC,2445262.312500,29.6650,-93.4789,0086,-9.00,0.16,9.0000,271.0000
1982-10-19 20:00:00 UTC,2445262.333333,29.6650,-93.4789,0086,-8.99,-0.31,9.0000,268.0000
1982-10-19 20:30:00 UTC,2445262.354167,29.6650,-93.4789,0086,-8.95,-0.94,9.0000,264.0000
1982-10-19 21:00:00 UTC,2445262.375000,29.6650,-93.4789,0086,-8.91,-1.25,9.0000,262.0000
1982-10-19 21:30:00 UTC,2445262.395833,29.6650,-93.4789,0086,-8.91,-1.25,9.0000,262.0000
1982-10-19 22:00:00 UTC,2445262.416667,29.6650,-93.4789,0086,-8.93,-1.10,9.0000,263.0000
1982-10-19 22:30:00 UTC,2445262.437500,29.6650,-93.4789,0086,-7.85,-1.53,8.0000,259.0000
1982-10-19 23:00:00 UTC,2445262.458333,29.6650,-93.4789,0086,-5.74,-1.75,6.0000,253.0000
1982-10-19 23:30:00 UTC,2445262.479167,29.6650,-93.4789,0086,-5.56,-2.25,6.0000,248.0000
1982-10-20 00:00:00 UTC,2445262.500000,29.6650,-93.4789,0086,-4.53,-2.11,5.0000,245.0000
1982-10-20 00:30:00 UTC,2445262.520833,29.6650,-93.4789,0086,-4.60,-1.95,5.0000,247.0000
1982-10-20 01:00:00 UTC,2445262.541667,29.6650,-93.4789,0086,-5.74,-1.75,6.0000,253.0000
1982-10-20 01:30:00 UTC,2445262.562500,29.6650,-93.4789,0086,-5.87,-1.25,6.0000,258.0000
1982-10-20 02:00:00 UTC,2445262.583333,29.6650,-93.4789,0086,-6.85,-1.46,7.0000,258.0000
1982-10-20 02:30:00 UTC,2445262.604167,29.6650,-93.4789,0086,-6.76,-1.81,7.0000,255.0000
1982-10-20 03:00:00 UTC,2445262.625000,29.6650,-93.4789,0086,-6.66,-2.16,7.0000,252.0000
1982-10-20 03:30:00 UTC,2445262.645833,29.6650,-93.4789,0086,-6.66,-2.16,7.0000,252.0000
1982-10-20 04:00:00 UTC,2445262.666667,29.6650,-93.4789,0086,-6.79,-1.69,7.0000,256.0000
1982-10-20 04:30:00 UTC,2445262.687500,29.6650,-93.4789,0086,-7.90,-1.25,8.0000,261.0000
1982-10-20 05:00:00 UTC,2445262.708333,29.6650,-93.4789,0086,-7.94,-0.97,8.0000,263.0000
1982-10-20 05:30:00 UTC,2445262.729167,29.6650,-93.4789,0086,-7.97,-0.70,8.0000,265.0000
1982-10-20 06:00:00 UTC,2445262.750000,29.6650,-93.4789,0086,-7.98,-0.56,8.0000,266.0000
1982-10-20 06:30:00 UTC,2445262.770833,29.6650,-93.4789,0086,-8.97,-0.78,9.0000,265.0000
1982-10-20 07:00:00 UTC,2445262.791667,29.6650,-93.4789,0086,-8.97,-0.78,9.0000,265.0000
1982-10-20 07:30:00 UTC,2445262.812500,29.6650,-93.4789,0086,-8.99,-0.47,9.0000,267.0000
1982-10-20 08:00:00 UTC,2445262.833333,29.6650,-93.4789,0086,-8.99,-0.47,9.0000,267.0000
1982-10-20 08:30:00 UTC,2445262.854167,29.6650,-93.4789,0086,-8.97,-0.78,9.0000,265.0000
1982-10-20 09:00:00 UTC,2445262.875000,29.6650,-93.4789,0086,-7.92,-1.11,8.0000,262.0000
1982-10-20 09:30:00 UTC,2445262.895833,29.6650,-93.4789,0086,-7.83,-1.66,8.0000,258.0000
1982-10-20 10:00:00 UTC,2445262.916667,29.6650,-93.4789,0086,-7.83,-1.66,8.0000,258.0000
1982-10-20 10:30:00 UTC,2445262.937500,29.6650,-93.4789,0086,-7.90,-1.25,8.0000,261.0000
1982-10-20 11:00:00 UTC,2445262.958333,29.6650,-93.4789,0086,-6.85,-1.46,7.0000,258.0000
1982-10-20 11:30:00 UTC,2445262.979167,29.6650,-93.4789,0086,-6.79,-1.69,7.0000,256.0000
1982-10-20 12:00:00 UTC,2445263.000000,29.6650,-93.4789,0086,-6.82,-1.57,7.0000,257.0000
1982-10-20 12:30:00 UTC,2445263.020833,29.6650,-93.4789,0086,-5.85,-1.35,6.0000,257.0000
1982-10-20 13:00:00 UTC,2445263.041667,29.6650,-93.4789,0086,-5.85,-1.35,6.0000,257.0000
1982-10-20 13:30:00 UTC,2445263.062500,29.6650,-93.4789,0086,-5.91,-1.04,6.0000,260.0000
1982-10-20 14:00:00 UTC,2445263.083333,29.6650,-93.4789,0086,-6.00,-0.21,6.0000,268.0000
1982-10-20 14:30:00 UTC,2445263.104167,29.6650,-93.4789,0086,-5.99,0.42,6.0000,274.0000
1982-10-20 15:00:00 UTC,2445263.125000,29.6650,-93.4789,0086,-6.98,0.49,7.0000,274.0000
1982-10-20 15:30:00 UTC,2445263.145833,29.6650,-93.4789,0086,-7.97,0.70,8.0000,275.0000
1982-10-20 16:00:00 UTC,2445263.166667,29.6650,-93.4789,0086,-7.90,1.25,8.0000,279.0000
1982-10-20 16:30:00 UTC,2445263.187500,29.6650,-93.4789,0086,-8.80,1.87,9.0000,282.0000
1982-10-20 17:00:00 UTC,2445263.208333,29.6650,-93.4789,0086,-8.77,2.02,9.0000,283.0000
1982-10-20 17:30:00 UTC,2445263.229167,29.6650,-93.4789,0086,-9.74,2.25,10.0000,283.0000
1982-10-20 18:00:00 UTC,2445263.250000,29.6650,-93.4789,0086,-8.86,1.56,9.0000,280.0000
1982-10-20 18:30:00 UTC,2445263.270833,29.6650,-93.4789,0086,-8.86,1.56,9.0000,280.0000
1982-10-20 19:00:00 UTC,2445263.291667,29.6650,-93.4789,0086,-8.69,2.33,9.0000,285.0000
1982-10-20 19:30:00 UTC,2445263.312500,29.6650,-93.4789,0086,-7.73,2.07,8.0000,285.0000
1982-10-20 20:00:00 UTC,2445263.333333,29.6650,-93.4789,0086,-6.87,1.34,7.0000,281.0000
1982-10-20 20:30:00 UTC,2445263.354167,29.6650,-93.4789,0086,-7.88,1.39,8.0000,280.0000
1982-10-20 21:00:00 UTC,2445263.375000,29.6650,-93.4789,0086,-7.88,1.39,8.0000,280.0000
1982-10-20 21:30:00 UTC,2445263.395833,29.6650,-93.4789,0086,-7.96,0.84,8.0000,276.0000
1982-10-20 22:00:00 UTC,2445263.416667,29.6650,-93.4789,0086,-7.00,-0.00,7.0000,270.0000
1982-10-20 22:30:00 UTC,2445263.437500,29.6650,-93.4789,0086,-8.00,-0.14,8.0000,269.0000
1982-10-20 23:00:00 UTC,2445263.458333,29.6650,-93.4789,0086,-8.00,-0.14,8.0000,269.0000
1982-10-20 23:30:00 UTC,2445263.479167,29.6650,-93.4789,0086,-8.98,-0.63,9.0000,266.0000
1982-10-21 00:00:00 UTC,2445263.500000,29.6650,-93.4789,0086,-7.96,-0.84,8.0000,264.0000
1982-10-21 00:30:00 UTC,2445263.520833,29.6650,-93.4789,0086,-5.99,-0.31,6.0000,267.0000
1982-10-21 01:00:00 UTC,2445263.541667,29.6650,-93.4789,0086,-4.99,-0.26,5.0000,267.0000
1982-10-21 01:30:00 UTC,2445263.562500,29.6650,-93.4789,0086,-3.98,-0.42,4.0000,264.0000
1982-10-21 02:00:00 UTC,2445263.583333,29.6650,-93.4789,0086,-2.97,-0.42,3.0000,262.0000
1982-10-21 02:30:00 UTC,2445263.604167,29.6650,-93.4789,0086,-2.95,-0.52,3.0000,260.0000
1982-10-21 03:00:00 UTC,2445263.625000,29.6650,-93.4789,0086,-2.99,-0.26,3.0000,265.0000
1982-10-21 03:30:00 UTC,2445263.645833,29.6650,-93.4789,0086,-3.98,-0.35,4.0000,265.0000
1982-10-21 04:00:00 UTC,2445263.666667,29.6650,-93.4789,0086,-3.88,-0.97,4.0000,256.0000
1982-10-21 04:30:00 UTC,2445263.687500,29.6650,-93.4789,0086,-3.78,-1.30,4.0000,251.0000
1982-10-21 05:00:00 UTC,2445263.708333,29.6650,-93.4789,0086,-2.00,-0.03,2.0000,269.0000
1982-10-21 05:30:00 UTC,2445263.729167,29.6650,-93.4789,0086,-1.31,1.51,2.0000,319.0000
1982-10-21 06:00:00 UTC,2445263.750000,29.6650,-93.4789,0086,-0.65,1.89,2.0000,341.0000
1982-10-21 06:30:00 UTC,2445263.770833,29.6650,-93.4789,0086,-1.88,0.68,2.0000,290.0000
1982-10-21 07:00:00 UTC,2445263.791667,29.6650,-93.4789,0086,-3.96,-0.56,4.0000,262.0000
1982-10-21 07:30:00 UTC,2445263.812500,29.6650,-93.4789,0086,-4.97,-0.52,5.0000,264.0000
1982-10-21 08:00:00 UTC,2445263.833333,29.6650,-93.4789,0086,-4.00,0.14,4.0000,272.0000
1982-10-21 08:30:00 UTC,2445263.854167,29.6650,-93.4789,0086,-2.98,0.31,3.0000,276.0000
1982-10-21 09:00:00 UTC,2445263.875000,29.6650,-93.4789,0086,-2.99,0.21,3.0000,274.0000
1982-10-21 09:30:00 UTC,2445263.895833,29.6650,-93.4789,0086,-4.94,0.78,5.0000,279.0000
1982-10-21 10:00:00 UTC,2445263.916667,29.6650,-93.4789,0086,-5.89,1.14,6.0000,281.0000
1982-10-21 10:30:00 UTC,2445263.937500,29.6650,-93.4789,0086,-6.93,0.97,7.0000,278.0000
1982-10-21 11:00:00 UTC,2445263.958333,29.6650,-93.4789,0086,-5.93,0.94,6.0000,279.0000
1982-10-21 11:30:00 UTC,2445263.979167,29.6650,-93.4789,0086,-4.76,1.55,5.0000,288.0000
1982-10-21 12:00:00 UTC,2445264.000000,29.6650,-93.4789,0086,-3.73,1.43,4.0000,291.0000
1982-10-21 12:30:00 UTC,2445264.020833,29.6650,-93.4789,0086,-4.81,1.38,5.0000,286.0000
1982-10-21 13:00:00 UTC,2445264.041667,29.6650,-93.4789,0086,-5.67,1.95,6.0000,289.0000
1982-10-21 13:30:00 UTC,2445264.062500,29.6650,-93.4789,0086,-7.52,2.74,8.0000,290.0000
1982-10-21 14:00:00 UTC,2445264.083333,29.6650,-93.4789,0086,-7.69,2.21,8.0000,286.0000
1982-10-21 14:30:00 UTC,2445264.104167,29.6650,-93.4789,0086,-7.83,1.66,8.0000,282.0000
1982-10-21 15:00:00 UTC,2445264.125000,29.6650,-93.4789,0086,-6.82,1.57,7.0000,283.0000
1982-10-21 15:30:00 UTC,2445264.145833,29.6650,-93.4789,0086,-7.85,1.53,8.0000,281.0000
1982-10-21 16:00:00 UTC,2445264.166667,29.6650,-93.4789,0086,-7.97,0.70,8.0000,275.0000
1982-10-21 16:30:00 UTC,2445264.187500,29.6650,-93.4789,0086,-7.92,1.11,8.0000,278.0000
1982-10-21 17:00:00 UTC,2445264.208333,29.6650,-93.4789,0086,-8.86,1.56,9.0000,280.0000
1982-10-21 17:30:00 UTC,2445264.229167,29.6650,-93.4789,0086,-9.85,1.74,10.0000,280.0000
1982-10-21 18:00:00 UTC,2445264.250000,29.6650,-93.4789,0086,-9.78,2.08,10.0000,282.0000
1982-10-21 18:30:00 UTC,2445264.270833,29.6650,-93.4789,0086,-10.76,2.29,11.0000,282.0000
1982-10-21 19:00:00 UTC,2445264.291667,29.6650,-93.4789,0086,-9.88,1.56,10.0000,279.0000
1982-10-21 19:30:00 UTC,2445264.312500,29.6650,-93.4789,0086,-9.95,1.05,10.0000,276.0000
1982-10-21 20:00:00 UTC,2445264.333333,29.6650,-93.4789,0086,-9.99,0.52,10.0000,273.0000
1982-10-21 20:30:00 UTC,2445264.354167,29.6650,-93.4789,0086,-9.99,0.52,10.0000,273.0000
1982-10-21 21:00:00 UTC,2445264.375000,29.6650,-93.4789,0086,-9.00,-0.00,9.0000,270.0000
1982-10-21 21:30:00 UTC,2445264.395833,29.6650,-93.4789,0086,-7.98,-0.56,8.0000,266.0000
1982-10-21 22:00:00 UTC,2445264.416667,29.6650,-93.4789,0086,-8.97,-0.78,9.0000,265.0000
1982-10-21 22:30:00 UTC,2445264.437500,29.6650,-93.4789,0086,-8.99,-0.31,9.0000,268.0000
1982-10-21 23:00:00 UTC,2445264.458333,29.6650,-93.4789,0086,-8.99,0.31,9.0000,272.0000
1982-10-21 23:30:00 UTC,2445264.479167,29.6650,-93.4789,0086,-8.98,0.63,9.0000,274.0000
1982-10-22 00:00:00 UTC,2445264.500000,29.6650,-93.4789,0086,-8.98,0.63,9.0000,274.0000
1982-10-22 00:30:00 UTC,2445264.520833,29.6650,-93.4789,0086,-8.98,0.63,9.0000,274.0000
1982-10-22 01:00:00 UTC,2445264.541667,29.6650,-93.4789,0086,-8.00,0.28,8.0000,272.0000
1982-10-22 01:30:00 UTC,2445264.562500,29.6650,-93.4789,0086,-8.00,-0.00,8.0000,270.0000
1982-10-22 02:00:00 UTC,2445264.583333,29.6650,-93.4789,0086,-6.98,-0.49,7.0000,266.0000
1982-10-22 02:30:00 UTC,2445264.604167,29.6650,-93.4789,0086,-6.79,-1.69,7.0000,256.0000
1982-10-22 03:00:00 UTC,2445264.625000,29.6650,-93.4789,0086,-6.58,-2.39,7.0000,250.0000
1982-10-22 03:30:00 UTC,2445264.645833,29.6650,-93.4789,0086,-6.82,-1.57,7.0000,257.0000
1982-10-22 04:00:00 UTC,2445264.666667,29.6650,-93.4789,0086,-6.98,-0.49,7.0000,266.0000
1982-10-22 04:30:00 UTC,2445264.687500,29.6650,-93.4789,0086,-6.00,0.21,6.0000,272.0000
1982-10-22 05:00:00 UTC,2445264.708333,29.6650,-93.4789,0086,-5.97,0.63,6.0000,276.0000
1982-10-22 05:30:00 UTC,2445264.729167,29.6650,-93.4789,0086,-5.98,0.52,6.0000,275.0000
1982-10-22 06:00:00 UTC,2445264.750000,29.6650,-93.4789,0086,-6.00,-0.00,6.0000,270.0000
1982-10-22 06:30:00 UTC,2445264.770833,29.6650,-93.4789,0086,-4.97,0.52,5.0000,276.0000
1982-10-22 07:00:00 UTC,2445264.791667,29.6650,-93.4789,0086,-5.71,1.85,6.0000,288.0000
1982-10-22 07:30:00 UTC,2445264.812500,29.6650,-93.4789,0086,-5.74,1.75,6.0000,287.0000